Simultaneous Nadir Overpasses (SNOs) Predictions

Prediction of SNOs between GOES-15 and NOAA-20 Satellite Orbit:

Table of predicted SNOs for the next 14.0 days since TLE Epoch: 2/17/2024
Index Date Time (GOES-15) GOES-15 Lat,Lon NOAA-20 Lat,Lon Distance(km) Time Diff (sec)
1 02/18/2024 09:27:41 -0.01, 61.46 -0.55, 59.17 261.75 80
2 02/19/2024 09:11:36 -0.01, 61.45 0.47, 63.70 255.70 80
3 02/20/2024 21:33:24 0.01, 61.34 0.67, 58.42 332.82 80
4 02/21/2024 21:12:00 0.01, 61.33 -0.35, 62.95 184.28 80
5 02/23/2024 09:33:56 -0.01, 61.42 -0.84, 57.65 429.43 80
6 02/24/2024 09:17:52 -0.01, 61.41 0.19, 62.18 87.93 80
7 02/26/2024 21:18:15 0.01, 61.30 -0.03, 61.44 16.70 80
8 02/29/2024 09:24:05 -0.01, 61.39 -0.17, 60.68 80.71 80
9 03/01/2024 09:05:21 -0.01, 61.39 0.86, 65.21 436.03 80
